Lapse_Rate
6.4 6.5 6.6 6.7 6.7 6.7 6.7 6.7 6.6 6.6 6.5 6.3 6.4 6.5 6.7 6.7 6.6 6.4 5.9 6.0 5.9 5.9 6.2 6.7 7.2 7.3 7.3 7.3 7.5 8.1 9.1 9.4 9.4 9.3 9.1 7.8 7.7 7.1 6.8 6.8 6.4 6.1 6.3 5.9 5.9
6.1 6.3 6.4 6.6 6.6 6.6 6.7 6.6 6.6 6.5 6.4 6.3 6.4 6.6 6.6 6.7 6.6 6.5 6.2 6.1 6.0 6.1 6.4 6.5 7.0 7.1 7.6 7.7 7.9 8.9 9.3 9.2 8.7 9.4 9.1 8.0 7.7 7.4 7.4 6.9 6.7 5.9 5.8 6.1 5.8
5.9 6.0 6.2 6.3 6.4 6.5 6.6 6.6 6.6 6.5 6.3 6.2 6.4 6.6 6.6 6.6 6.4 6.4 6.3 6.2 6.2 6.3 6.6 6.5 6.7 7.5 8.1 8.6 8.1 8.5 9.0 8.6 9.4 8.2 8.2 8.1 8.1 7.7 7.7 8.2 7.4 6.4 5.7 6.0 5.8
5.8 5.9 6.0 6.1 6.2 6.3 6.4 6.6 6.6 6.5 6.4 6.3 6.4 6.7 6.7 6.5 6.5 6.7 6.4 6.3 6.3 6.4 6.6 6.5 7.3 8.2 9.4 9.5 8.1 9.4 8.8 8.5 8.5 8.4 8.8 9.1 7.8 8.2 7.7 7.7 7.3 6.5 6.9 6.7 6.0
5.7 5.8 5.9 6.1 6.2 6.2 6.4 6.5 6.5 6.6 6.5 6.4 6.5 6.7 6.7 6.5 6.1 6.8 6.5 6.3 6.4 6.4 6.6 6.8 7.4 7.7 9.3 8.4 8.6 9.5 9.0 8.6 8.5 9.2 9.1 8.4 8.5 8.0 7.8 7.7 7.4 7.5 7.4 7.0 5.5
5.7 5.8 5.9 6.0 6.1 6.2 6.3 6.5 6.6 6.6 6.6 6.6 6.7 6.7 6.6 6.2 6.6 6.8 6.6 6.4 6.4 6.5 6.6 6.8 7.1 7.3 7.9 8.2 9.2 8.6 8.7 8.8 8.8 8.9 8.9 8.9 8.8 8.1 7.9 7.6 7.8 7.6 6.3 5.9 5.8
5.8 5.9 6.0 6.1 6.1 6.1 6.3 6.4 6.5 6.6 6.6 6.7 6.7 6.8 6.5 5.8 6.8 6.9 6.7 6.6 6.5 6.5 6.8 6.8 6.8 7.3 8.1 9.3 8.4 8.7 9.6 9.5 8.8 8.8 9.0 8.6 7.7 8.1 7.7 7.5 6.9 6.6 6.4 6.1 6.1
5.8 5.9 6.0 6.2 6.2 6.2 6.3 6.3 6.4 6.5 6.6 6.7 6.8 6.8 6.4 6.7 6.9 7.0 6.7 6.7 6.6 6.6 6.7 6.7 7.1 7.2 7.6 8.3 8.8 9.6 9.6 9.6 8.9 9.4 8.7 9.0 8.5 8.1 7.6 7.5 7.4 7.2 6.6 6.3 6.2
5.8 5.9 6.0 6.2 6.4 6.3 6.3 6.3 6.4 6.5 6.6 6.7 6.8 6.6 6.3 6.8 6.8 6.9 6.8 6.6 6.7 6.7 6.7 7.0 7.2 7.4 8.2 9.3 9.5 9.5 9.7 9.7 9.5 8.6 8.9 9.0 8.1 7.8 7.9 7.5 7.6 7.4 6.9 6.6 6.5
5.7 5.8 6.0 6.2 6.3 6.3 6.3 6.4 6.4 6.5 6.7 6.8 6.8 6.8 6.8 6.6 6.3 6.8 6.9 6.6 6.7 6.8 6.8 6.9 7.5 8.1 9.2 9.5 9.7 9.8 9.7 9.7 9.7 8.8 8.4 8.4 7.8 7.5 7.8 7.9 7.9 7.5 7.3 7.1 6.9
5.7 5.8 6.0 6.2 6.3 6.3 6.3 6.4 6.7 6.6 6.8 6.4 6.7 6.4 6.4 6.3 6.9 6.9 6.9 6.7 6.9 7.0 7.3 7.6 7.9 9.4 9.5 9.4 8.8 9.0 9.5 9.7 9.7 8.7 9.0 8.2 7.9 7.2 7.1 7.6 7.9 7.9 7.7 7.8 7.5
5.8 5.9 6.1 6.2 6.3 6.3 6.3 6.4 6.6 6.8 6.7 6.7 6.8 6.7 6.5 6.4 6.4 6.5 6.5 6.8 7.0 7.3 7.6 8.2 8.2 9.5 8.9 8.4 8.4 8.9 9.6 9.7 9.7 8.9 9.1 8.6 8.1 7.6 7.0 7.1 7.1 7.4 7.7 7.9 8.0
5.9 6.0 6.1 6.3 6.4 6.4 6.4 6.5 6.6 6.8 6.6 6.7 6.6 6.5 6.5 6.6 6.9 6.7 6.6 7.2 7.5 7.6 7.9 8.4 9.6 8.7 8.3 8.4 8.5 9.3 9.7 9.7 9.5 9.2 9.1 9.1 8.4 8.2 7.5 7.1 7.1 7.1 7.1 7.4 7.7
6.0 6.1 6.2 6.4 6.4 6.5 6.5 6.6 6.8 7.0 7.0 7.2 6.9 6.8 6.7 6.9 7.3 7.1 6.9 7.4 7.8 8.1 8.3 8.3 9.2 8.3 8.3 8.4 9.0 9.7 9.5 9.1 9.0 9.4 9.7 9.3 8.6 8.2 7.9 7.4 7.2 7.2 7.2 7.3 7.3
6.2 6.2 6.3 6.4 6.6 6.6 6.8 6.7 6.9 7.2 9.0 7.6 7.3 7.0 7.0 7.4 7.5 7.1 7.2 7.4 8.0 8.2 8.4 8.8 8.6 8.5 8.3 8.6 9.5 9.6 9.1 9.3 9.4 9.6 9.7 9.3 8.4 8.2 7.8 7.5 7.2 6.9 6.7 6.9 7.2
6.4 6.5 6.5 6.6 6.7 6.8 6.9 6.9 7.0 7.1 9.3 7.7 7.4 7.2 7.3 7.5 7.6 7.4 7.2 7.3 7.9 8.2 8.2 9.0 8.4 8.4 8.6 8.9 8.8 8.8 8.9 9.1 9.6 9.6 9.8 9.7 9.4 5.8 7.7 7.1 7.1 6.8 6.7 6.7 7.2
6.7 6.7 6.8 6.8 6.9 7.0 6.9 7.0 7.1 8.5 8.5 8.0 7.7 7.6 7.8 7.9 7.8 7.6 7.6 7.7 8.1 8.3 8.6 8.5 8.6 8.5 8.5 8.7 8.9 8.9 9.3 9.7 9.8 9.8 9.7 9.6 8.3 7.5 7.6 7.2 7.0 6.9 6.9 7.0 7.4
7.0 7.0 7.1 7.2 7.2 7.1 7.0 6.6 7.8 9.5 8.9 8.2 8.2 8.1 8.3 8.3 8.3 8.0 8.1 8.3 8.3 8.9 9.6 9.6 9.6 9.4 8.8 8.7 9.6 9.6 9.6 9.9 9.6 10.0 9.9 9.3 9.2 8.1 7.5 7.3 7.1 6.9 8.1 8.5 8.5
7.2 7.2 7.3 7.5 7.5 7.4 7.2 7.3 9.1 9.4 9.6 8.5 8.6 8.6 8.7 8.6 8.7 8.5 8.5 8.8 8.7 8.6 9.6 9.7 9.6 9.0 8.8 9.2 9.3 9.7 9.6 9.6 9.6 9.6 9.7 8.7 8.2 7.6 7.4 7.2 6.9 6.7 7.6 8.2 8.1
7.3 7.3 7.5 7.6 7.7 7.6 7.0 7.9 9.5 8.5 8.1 8.6 9.3 9.5 9.6 9.0 8.7 8.7 8.8 9.0 9.5 8.9 9.1 9.6 9.6 9.5 9.0 9.0 9.2 9.5 9.5 9.4 8.8 8.9 9.5 8.8 8.8 8.9 7.6 7.2 6.8 6.6 6.8 7.7 7.8
7.3 6.9 7.4 7.6 7.6 7.5 7.6 8.7 8.6 8.1 7.9 8.4 9.5 9.5 9.6 9.6 9.1 9.2 9.6 9.5 9.5 8.8 8.6 9.5 9.6 9.3 9.5 9.5 9.4 8.8 9.5 9.3 9.2 9.0 9.3 9.1 7.2 6.6 7.5 7.0 6.7 6.8 7.5 7.7 7.7
7.3 7.3 7.3 7.6 7.5 7.5 8.2 8.8 7.9 8.3 8.1 8.3 8.4 9.5 9.6 9.6 9.6 9.6 9.6 9.6 8.5 8.7 8.9 9.2 9.6 9.6 9.5 9.5 9.1 9.1 9.5 8.8 9.6 8.2 7.7 8.6 7.5 6.7 7.1 6.8 6.4 6.3 7.1 7.4 7.4
7.0 7.0 7.2 7.6 7.9 8.5 8.3 8.0 8.0 8.3 8.6 8.6 8.8 9.5 9.5 9.6 9.7 9.6 9.6 9.0 8.9 8.9 9.5 9.6 9.5 9.6 9.6 9.5 9.1 9.0 9.5 9.5 9.5 9.6 9.7 9.7 7.7 7.0 6.6 6.2 6.1 6.0 6.7 6.8 6.7
6.9 7.5 7.0 7.5 7.4 7.9 8.5 8.2 8.2 8.1 8.3 8.3 9.0 8.9 9.0 9.4 9.4 9.5 9.4 8.9 9.1 9.1 8.9 9.1 9.5 9.5 8.8 7.8 7.9 8.4 9.1 9.4 9.2 9.5 9.6 9.2 7.9 6.8 6.4 6.4 5.9 5.5 5.5 5.4 5.5
6.8 7.7 7.4 7.9 8.0 8.0 8.1 8.3 8.4 8.6 8.2 8.3 8.5 9.1 9.4 9.4 9.4 9.4 9.4 8.6 8.9 9.0 8.9 9.0 9.5 9.2 9.0 8.1 8.4 9.3 9.1 9.1 8.8 9.0 9.4 9.1 9.0 8.7 6.2 6.1 5.6 5.2 5.0 4.9 4.9
6.6 6.8 7.0 7.5 7.4 7.6 7.8 7.9 8.3 9.0 8.8 8.6 9.0 9.4 9.3 9.1 9.3 9.3 9.3 9.3 9.1 8.8 9.0 9.2 9.4 9.2 9.1 9.2 9.0 9.2 9.3 8.6 8.4 8.2 8.2 8.1 8.1 6.9 6.0 6.0 5.4 5.2 4.9 4.9 5.2
6.8 6.9 6.9 7.4 7.8 7.9 8.3 8.2 8.3 9.3 8.1 8.8 9.4 9.4 9.4 8.4 8.4 8.3 9.0 9.1 9.2 8.9 9.1 9.1 9.4 9.2 9.4 9.2 8.8 8.6 8.7 8.7 8.1 7.7 7.6 8.2 7.0 6.2 5.8 5.5 5.3 5.0 4.8 5.6 5.8
Wind_Speed
17 17 17 17 18 17 16 16 15 15 15 15 14 15 16 16 21 7 9 3 2 6 6 10 8 7 8 3 4 6 3 9 11 11 12 7 5 7 3 8 7 4 8 19 20
18 18 18 18 18 18 17 17 16 16 15 15 14 14 15 15 12 12 4 4 2 1 11 10 4 4 7 5 3 8 10 8 7 7 7 8 7 5 2 3 11 7 15 17 19
19 20 20 19 19 19 18 17 17 16 15 15 13 13 14 15 10 8 5 5 7 10 13 9 10 8 5 3 3 1 7 5 9 10 8 6 4 3 7 10 6 12 15 16 15
20 21 21 21 21 20 19 18 17 17 15 14 13 13 13 8 0 8 3 8 8 11 14 12 11 3 4 5 4 3 5 5 5 3 5 10 3 7 4 9 9 13 16 15 15
21 22 21 22 22 22 21 19 18 17 14 13 11 11 8 9 5 10 9 11 11 12 12 7 5 6 7 2 6 5 7 5 6 4 5 3 5 5 5 6 11 14 16 16 14
21 22 22 22 23 23 22 21 17 15 13 11 9 9 7 11 4 4 12 14 13 12 10 8 5 5 5 1 7 4 3 3 4 5 4 5 9 8 9 8 12 14 15 15 14
22 22 23 23 24 24 24 22 18 14 13 10 8 6 10 4 2 7 13 14 10 12 8 2 6 11 5 4 3 7 4 7 8 4 6 16 11 14 6 7 10 10 11 13 12
22 22 23 23 25 25 25 22 16 11 11 9 7 9 2 4 1 6 8 8 7 6 7 3 5 11 10 6 12 9 8 8 7 8 3 4 12 11 5 5 10 12 10 11 12
23 23 24 24 24 25 24 22 11 6 7 7 7 8 5 4 9 8 9 10 10 8 4 3 8 14 8 15 12 6 7 3 10 5 6 9 11 14 1 8 10 12 11 11 11
24 24 24 25 25 24 26 13 6 5 7 9 9 7 7 11 10 6 8 8 12 10 9 10 12 14 14 12 6 9 4 0 5 7 8 8 11 10 11 7 7 10 12 12 13
24 24 25 25 25 24 16 4 5 7 12 9 8 5 6 6 5 9 8 13 13 12 15 15 13 13 11 12 8 4 5 6 2 7 1 9 10 11 9 9 4 7 10 13 13
24 25 25 26 26 25 8 7 7 6 8 9 6 7 4 7 8 10 12 12 15 16 17 13 11 13 9 3 6 8 8 5 2 4 7 9 10 13 10 9 6 4 4 8 12
23 24 26 27 30 8 9 7 4 8 7 11 9 12 11 9 9 14 14 14 13 16 16 17 9 5 2 7 9 13 11 9 7 5 7 9 10 12 15 12 8 6 1 6 8
23 23 24 33 6 5 7 3 6 4 6 12 11 7 7 10 7 13 16 8 9 14 14 13 8 5 9 11 9 14 8 1 6 11 8 13 5 9 14 15 13 11 8 3 3
23 22 20 13 13 6 6 4 7 5 6 15 13 11 13 10 18 11 10 7 11 10 9 12 11 7 12 12 7 12 6 7 6 10 10 12 14 12 13 15 14 14 13 11 7
23 21 20 6 7 12 7 7 6 7 3 9 11 13 14 12 13 14 11 10 7 5 11 14 4 6 13 12 7 10 10 15 16 10 12 9 1 17 13 11 13 15 15 15 13
26 22 9 10 1 4 5 8 7 11 11 11 15 18 17 11 13 13 16 15 10 11 12 15 13 14 10 13 12 14 16 13 12 7 3 2 13 12 3 10 13 14 15 16 17
29 23 9 9 5 6 6 8 10 3 10 14 15 17 15 14 12 15 14 14 16 14 9 12 15 13 12 15 14 11 17 10 5 5 4 6 10 10 12 11 12 13 15 16 17
35 5 7 5 13 6 8 10 11 5 5 9 12 16 14 13 6 13 14 15 14 14 11 8 9 5 6 12 11 8 11 9 14 11 11 7 14 18 14 11 11 12 13 15 15
5 6 5 5 10 8 8 17 7 6 4 9 14 13 14 17 10 13 14 14 10 12 14 3 7 11 9 9 11 14 4 2 7 7 12 1 14 11 16 12 10 10 11 12 13
5 6 5 8 8 8 10 15 5 6 7 9 14 10 14 16 15 15 15 8 8 12 9 12 12 3 10 14 9 18 10 7 12 7 4 6 4 12 11 10 11 10 10 10 10
6 5 7 8 8 10 12 10 4 9 10 9 9 12 14 12 16 14 11 7 5 4 12 15 11 11 9 5 3 10 3 15 8 7 8 17 5 11 10 9 10 9 8 8 8
5 4 6 8 7 9 12 4 10 10 11 9 10 10 6 8 8 10 9 10 3 8 4 5 10 13 9 14 7 11 11 8 14 10 9 10 9 11 10 9 6 7 5 6 6
5 5 6 8 12 12 5 9 14 13 9 6 8 5 9 8 3 8 4 3 5 7 8 5 16 17 1 8 8 17 6 7 10 11 13 6 14 12 10 7 6 4 3 3 3
5 3 6 6 10 10 5 8 11 11 13 8 8 14 15 12 11 11 12 7 6 4 5 8 16 12 13 26 21 16 9 3 11 12 11 16 13 12 11 6 5 2 3 6 8
5 5 5 9 3 7 6 11 14 13 10 11 13 13 6 7 4 8 10 9 8 8 9 12 12 5 11 5 10 11 9 8 11 9 10 7 11 14 10 4 3 1 5 8 9
7 6 5 3 9 9 11 11 11 4 3 12 10 10 6 9 7 5 8 5 4 8 7 7 10 5 12 7 7 11 11 12 8 3 9 10 12 10 9 5 2 6 9 9 10
Wind_Direction
349 347 344 342 338 338 335 333 329 324 320 314 316 314 316 317 302 226 238 40 163 183 254 253 237 250 239 224 246 247 322 65 34 53 80 72 11 70 358 86 51 51 40 141 142
346 343 343 339 337 334 334 331 326 323 319 314 312 312 314 319 279 243 138 117 188 215 228 232 242 249 216 164 127 299 63 47 45 24 60 73 21 55 168 111 105 102 89 140 151
344 343 340 338 335 332 331 329 324 321 316 310 309 309 311 309 260 121 71 178 222 241 266 286 270 256 221 238 128 36 55 42 45 21 40 48 68 59 321 72 76 127 131 150 155
342 340 338 337 333 331 329 327 322 317 309 305 304 307 307 258 180 96 145 177 190 236 250 257 253 229 292 74 97 159 79 34 4 348 10 57 13 94 29 59 78 120 140 149 174
340 338 336 332 330 329 326 325 321 312 302 297 298 306 281 222 64 114 159 169 201 228 240 260 298 302 34 53 176 341 19 356 18 325 55 109 99 33 107 116 112 122 142 153 187
337 335 334 331 328 326 324 323 317 306 295 287 289 298 247 245 79 95 160 172 214 220 228 246 22 338 284 353 340 7 299 40 6 41 85 297 96 243 96 149 130 141 146 161 176
336 333 332 329 327 325 324 321 310 292 283 275 275 271 257 13 55 135 161 184 202 225 240 130 320 298 346 236 52 272 138 131 34 65 28 23 39 56 96 152 135 139 151 152 165
333 331 330 328 326 324 323 321 310 285 268 256 258 257 305 107 98 184 190 190 206 222 284 15 292 285 271 310 232 254 212 106 57 16 5 215 92 32 120 176 161 142 149 156 165
331 330 328 327 324 324 322 318 303 273 237 224 234 232 192 134 209 197 205 193 192 207 214 275 264 271 278 246 237 200 84 43 123 48 320 26 22 5 196 177 168 158 170 170 171
329 329 327 326 325 324 318 291 296 247 225 223 265 255 198 207 167 201 202 261 190 195 211 229 237 248 226 246 15 54 355 308 26 54 41 35 56 31 359 168 180 171 177 180 177
329 328 326 326 324 323 318 212 210 196 218 284 141 269 139 119 167 202 184 199 202 208 218 202 229 230 244 35 357 340 317 284 36 99 162 65 60 51 45 23 130 178 195 190 196
328 327 326 325 320 317 280 260 38 348 287 198 236 258 249 189 183 188 186 195 203 211 222 227 224 265 41 306 265 264 261 252 115 90 266 109 88 84 67 62 57 343 293 217 196
327 326 326 323 319 285 263 313 333 330 253 159 196 206 181 203 205 171 201 221 196 216 214 236 212 71 239 220 235 234 255 23 331 320 240 173 116 108 93 75 61 68 253 258 272
326 327 328 323 299 333 258 147 283 309 263 144 181 183 180 222 188 160 211 208 212 220 214 219 204 196 223 243 262 280 56 269 255 268 220 223 80 99 90 78 61 45 43 61 226
325 326 323 323 316 258 36 271 307 243 253 153 142 125 163 215 134 189 195 208 229 226 209 210 232 221 237 245 272 281 11 296 267 264 274 217 173 121 81 69 59 49 42 39 42
322 320 322 219 216 266 301 282 250 231 207 155 148 183 182 218 189 142 181 249 334 234 218 268 200 242 231 234 241 273 275 256 236 230 235 207 138 340 44 46 60 56 48 44 34
318 308 281 309 320 342 264 239 225 250 131 150 173 172 196 183 166 177 193 200 200 205 200 215 226 211 228 248 232 231 251 249 228 191 188 285 88 183 119 70 56 58 50 44 55
314 308 203 245 255 260 232 227 254 244 193 153 173 172 199 171 187 189 189 207 227 254 215 207 187 198 192 231 267 210 264 277 242 245 90 195 137 124 116 99 77 64 60 51 47
312 196 223 185 213 234 229 226 221 210 121 185 183 182 202 177 190 198 208 218 191 226 275 216 126 154 234 220 246 232 249 352 310 206 231 58 130 141 123 102 85 76 65 58 53
300 235 138 145 172 211 234 254 315 338 333 287 197 200 198 183 213 204 188 211 202 199 262 304 149 187 156 219 232 279 340 17 358 334 273 347 181 133 153 124 105 81 69 61 56
245 227 107 159 186 218 230 238 238 199 239 249 243 194 224 182 212 192 179 147 211 174 239 265 257 132 172 222 115 266 239 343 195 236 248 173 69 19 112 125 112 95 68 59 46
282 240 146 178 206 220 235 247 7 265 203 259 292 266 234 178 196 209 213 169 96 269 205 232 282 217 207 63 245 292 171 199 294 82 327 288 110 148 128 121 109 102 76 53 56
261 101 161 218 238 214 241 245 239 241 226 216 233 255 286 174 214 232 194 81 188 228 300 238 241 262 221 186 201 252 244 279 317 298 244 299 120 136 137 137 97 88 76 81 32
275 198 153 212 272 287 238 232 217 225 291 265 294 231 213 234 225 197 163 125 209 243 15 306 264 269 153 7 16 299 261 266 301 299 327 95 155 162 162 142 117 85 63 30 30
241 315 15 201 221 237 267 293 226 194 222 213 216 229 206 205 197 188 158 146 181 132 219 255 265 325 139 179 191 265 303 275 290 305 307 323 335 156 144 135 87 111 50 354 344
318 342 341 288 231 272 193 243 240 217 190 203 251 216 249 236 189 183 187 192 166 174 227 236 265 219 288 278 282 279 266 285 290 298 288 285 288 95 97 117 213 314 354 338 341
359 291 272 221 245 218 221 234 228 188 185 291 219 191 153 43 28 23 352 9 90 268 220 272 273 230 270 256 265 263 279 239 271 348 306 292 73 108 147 180 353 338 339 357 351